Temperature
17 17 17 17 17 17 17 17 17 16 16 17 17 17 17 17 17 17 17 16 16 16 16 16 16 16 16 16 16 15 15 15 15 15 15 15 15 15
17 17 17 17 17 17 17 17 16 16 16 16 16 16 16 16 16 16 16 16 16 16 16 16 16 15 15 15 15 15 15 15 15 15 15 15 14 14
17 17 17 17 17 17 17 17 16 16 16 16 16 16 16 16 16 16 16 16 16 16 15 15 15 15 15 15 15 15 15 15 15 15 15 14 14 14
17 17 17 17 17 16 16 16 16 16 16 16 16 16 16 16 16 16 15 15 15 15 15 15 15 15 15 15 14 14 14 14 14 14 14 14 14 14
16 16 16 16 16 16 16 16 16 16 16 16 16 16 15 15 15 15 15 15 15 15 15 15 15 14 14 14 14 14 14 14 14 14 14 14 14 14
16 16 16 16 16 16 16 16 16 16 16 16 15 15 15 15 15 15 15 15 15 14 14 14 14 14 14 14 14 14 14 14 14 14 13 13 13 13
16 16 16 16 15 15 15 15 15 15 15 15 15 15 15 14 14 14 14 14 14 14 14 14 14 14 14 14 14 14 13 13 13 13 13 13 13 13
16 16 16 15 15 15 15 15 15 15 15 15 14 14 14 14 14 14 14 13 14 14 14 14 14 13 13 13 13 13 13 13 13 13 13 13 13 13
15 15 15 15 15 15 15 14 14 14 14 14 14 14 14 14 14 13 13 13 13 13 13 13 13 13 13 13 13 13 13 13 13 12 12 12 12 12
15 15 15 15 15 14 14 14 14 14 14 14 14 14 14 14 13 13 13 13 13 13 13 13 13 13 13 13 12 12 12 12 12 12 12 12 12 12
15 15 15 15 15 14 14 14 14 14 14 14 14 13 13 13 13 13 13 13 12 13 12 12 12 12 12 12 12 12 12 12 12 12 12 12 11 11
14 14 14 14 14 14 14 14 14 14 14 14 14 13 13 13 13 13 13 13 12 12 12 12 12 12 12 12 12 12 12 11 11 11 11 11 11 11
14 14 14 14 14 14 14 14 13 13 13 13 13 13 13 13 13 13 12 12 12 12 12 12 12 12 11 11 11 11 11 11 11 11 11 11 11 11
14 14 13 13 13 13 13 13 13 13 13 13 13 13 13 13 13 12 12 12 12 12 12 12 11 11 11 11 11 11 11 11 11 11 11 11 11 11
13 13 13 13 13 13 13 13 13 13 12 12 12 12 12 12 12 12 12 12 12 11 11 11 11 11 11 11 11 11 11 11 11 11 11 10 10 10
13 13 13 13 13 13 12 12 12 12 12 12 12 12 12 12 12 12 11 11 11 11 11 11 11 11 11 11 10 10 10 10 10 10 10 10 10 10
13 12 12 12 12 12 12 12 12 12 12 12 12 12 12 11 11 11 11 11 11 10 10 11 11 11 10 10 10 10 10 10 10 10 10 10 10 10
12 12 12 12 12 12 12 12 12 12 12 11 11 11 11 11 11 11 11 10 10 10 10 10 10 10 10 10 10 10 10 10 10 10 10 10 10 10
12 12 12 11 11 11 11 11 11 11 11 11 11 11 11 11 11 11 10 10 10 10 10 10 10 10 10 9 10 10 10 10 10 10 9 10 10 10
11 11 11 11 11 11 11 11 11 11 11 11 11 11 10 10 10 10 10 10 10 10 10 10 10 9 9 9 9 9 9 9 9 9 9 9 9 9
11 11 11 11 10 10 10 10 10 10 10 10 10 10 10 10 10 10 10 10 9 9 9 9 9 9 9 9 9 9 9 9 9 9 9 9 9 9
11 11 10 10 10 10 10 10 10 10 10 10 10 10 10 10 10 10 9 9 9 9 9 9 9 9 9 9 9 9 9 9 9 9 9 9 9 9
10 10 10 10 10 10 10 10 10 10 10 10 9 9 9 9 9 9 9 9 9 9 9 9 9 9 9 9 8 8 8 8 9 9 9 9 8 9
Wind_Speed
2 2 2 2 2 2 2 3 3 2 3 3 2 2 3 5 5 6 7 9 11 12 11 10 10 10 9 8 7 7 6 6 6 6 6 7 7 8
2 2 2 2 2 2 2 2 3 4 3 3 3 2 2 3 4 6 7 8 10 11 12 11 10 10 9 9 8 7 6 6 6 6 6 7 7 7
2 2 2 2 1 2 2 2 2 3 3 3 2 1 2 2 2 3 4 5 6 7 9 10 11 10 10 9 8 7 7 7 6 6 6 6 6 6
2 1 2 2 2 2 1 2 2 2 3 3 2 1 2 2 2 2 3 3 4 6 6 7 8 9 10 10 9 8 8 7 7 6 6 6 6 6
3 3 3 2 2 2 2 2 2 2 2 2 2 1 1 1 0 1 1 1 3 4 5 6 7 7 8 9 9 9 8 7 7 7 7 6 6 5
3 3 3 3 3 3 3 3 2 1 1 1 1 1 1 1 0 1 1 2 2 2 2 4 4 6 7 7 8 8 7 7 6 7 7 7 6 6
2 3 3 3 4 4 3 3 3 2 2 2 2 1 1 1 2 2 2 2 2 1 1 2 2 2 4 5 6 7 7 7 6 6 6 7 6 6
3 3 3 3 3 3 4 4 4 4 4 3 3 3 4 3 2 2 1 1 3 2 1 2 2 2 3 5 6 7 8 8 7 6 6 5 5 6
3 3 3 3 2 2 2 3 3 5 6 6 5 5 5 5 4 3 3 3 4 3 1 2 2 2 3 4 6 8 8 8 8 7 6 5 5 5
3 3 3 3 2 2 2 2 3 3 5 5 6 6 6 5 6 6 5 3 2 2 2 2 2 2 2 3 6 7 7 7 8 8 7 6 6 5
3 3 3 4 4 3 2 2 2 3 4 5 6 6 7 7 6 3 2 2 2 3 1 2 2 1 1 2 4 7 7 7 8 8 8 7 6 5
3 3 4 4 4 4 4 4 4 4 3 2 2 2 2 3 5 5 5 4 2 2 2 2 2 1 1 2 2 4 5 6 7 7 7 7 7 4
3 3 4 5 5 5 5 4 6 4 2 2 1 1 1 1 2 4 4 4 4 3 3 3 2 2 2 1 2 2 4 4 4 5 7 7 7 6
3 3 4 5 5 5 4 4 4 2 1 1 1 2 2 2 2 2 3 3 4 4 4 4 3 3 2 2 2 2 2 3 3 3 4 4 5 6
3 4 4 5 4 3 3 3 2 2 2 2 3 3 3 3 2 1 1 1 1 2 2 3 3 3 3 3 3 2 2 2 3 3 3 3 3 3
1 2 3 3 2 2 2 2 2 2 3 3 3 3 2 1 1 1 1 1 0 2 3 2 3 3 3 3 3 3 3 3 2 3 3 3 3 5
0 1 1 2 2 2 1 2 2 1 2 2 2 2 2 2 1 1 1 1 2 2 2 2 2 2 3 3 2 3 3 2 3 3 2 2 3 4
2 0 1 1 2 2 2 2 2 2 2 2 2 3 3 3 2 1 1 2 3 3 2 2 0 1 2 2 2 3 2 2 2 2 2 2 3 3
2 1 2 2 2 2 2 2 2 2 2 2 2 3 3 3 3 2 2 2 2 2 2 2 2 2 2 2 3 2 2 2 1 1 2 2 3 3
2 2 3 3 3 3 2 2 2 2 2 2 2 3 3 3 3 3 3 3 3 3 2 2 3 4 5 4 3 2 2 2 2 2 2 1 0 1
3 3 3 3 3 3 3 2 2 2 2 2 2 2 3 3 3 3 3 4 3 3 4 4 5 5 2 2 1 1 2 2 4 4 3 2 1 0
3 3 3 3 3 3 2 2 2 2 2 2 2 2 2 2 3 3 3 3 3 3 4 3 2 1 2 3 3 3 2 2 1 1 3 5 4 4
3 3 3 3 2 2 2 2 2 2 2 2 2 2 2 1 2 2 3 3 3 3 3 2 1 1 2 3 3 3 3 2 1 0 2 4 4 5
Wind_Direction
220 217 219 234 207 201 188 173 171 219 258 259 254 257 222 209 213 203 206 220 224 223 227 231 233 228 226 223 221 217 221 226 227 228 230 230 226 224
209 204 224 234 218 214 210 195 179 184 225 240 238 257 236 225 222 205 209 215 220 224 225 228 232 231 227 223 219 217 218 221 218 221 229 230 227 229
231 209 227 218 214 228 220 206 201 179 216 258 249 250 241 252 225 216 217 212 222 228 230 231 230 226 221 221 221 218 220 218 214 217 223 227 225 224
233 229 249 240 234 237 225 228 223 203 191 241 268 247 247 245 232 225 232 227 226 229 229 237 234 223 217 219 221 218 218 219 216 219 223 225 227 221
213 219 236 219 240 246 233 236 234 222 182 190 249 258 267 269 313 281 265 272 240 230 232 241 237 228 222 222 220 216 215 216 218 221 222 222 220 220
219 220 226 217 229 237 241 237 226 202 179 175 226 255 272 277 139 267 304 289 266 239 234 231 230 229 229 226 221 215 210 209 215 220 222 221 218 219
253 242 234 226 227 231 239 225 206 200 194 196 222 231 253 250 239 230 250 274 274 255 254 245 217 227 236 227 221 220 215 210 210 215 220 219 219 223
257 263 258 242 242 240 245 231 209 202 203 205 220 221 236 228 226 217 215 264 276 264 200 255 211 226 233 223 218 213 213 210 209 213 217 221 222 226
248 262 269 268 231 224 256 260 250 228 207 202 213 226 225 219 203 215 217 221 242 240 179 247 240 237 242 230 222 212 215 219 217 214 211 215 221 230
241 242 249 261 241 207 236 251 260 259 233 218 214 223 223 215 201 205 211 225 267 264 183 217 246 242 250 236 225 216 219 228 230 225 221 219 221 232
261 255 243 244 240 209 206 230 266 283 267 235 223 229 227 216 193 173 185 184 256 263 213 181 227 260 266 255 237 220 222 229 236 235 233 230 223 221
288 277 255 244 245 226 210 215 238 260 268 270 272 268 236 206 192 191 192 194 211 248 235 171 200 165 279 276 248 230 231 237 236 234 233 232 218 206
267 276 273 261 255 253 233 228 232 233 239 219 222 250 261 238 221 208 199 192 198 228 219 172 187 190 191 252 276 241 227 231 230 236 240 238 226 203
247 257 266 274 272 265 251 255 255 232 212 203 210 230 236 238 238 225 211 213 213 218 214 178 181 189 185 214 255 265 245 229 216 226 229 235 232 224
246 255 272 284 275 264 257 253 229 205 208 215 223 231 233 227 221 219 239 225 271 272 228 198 187 195 190 203 219 224 239 247 216 216 217 210 214 210
300 297 290 280 287 277 279 273 237 218 207 218 229 229 222 210 212 201 208 225 269 304 302 266 218 187 202 211 202 224 214 213 222 220 213 218 212 215
52 19 19 352 335 328 309 282 274 252 230 233 217 210 207 204 229 218 185 188 210 240 275 301 276 232 207 196 211 230 221 221 216 209 198 215 232 222
136 160 276 281 272 274 276 277 265 245 236 223 216 211 209 211 225 231 195 197 217 227 231 238 208 40 11 338 230 216 219 224 226 207 186 193 235 245
154 215 239 253 258 259 260 255 257 259 243 226 219 218 215 209 208 218 211 210 227 235 242 231 200 174 201 259 286 224 193 213 194 202 204 192 215 241
212 227 240 248 253 251 244 248 259 278 271 252 230 221 212 202 204 213 215 215 227 237 250 251 222 207 207 217 223 267 238 190 185 198 208 213 275 296
233 239 241 242 248 246 239 237 242 250 257 253 247 239 221 202 209 215 216 219 219 227 239 247 244 222 190 134 143 287 287 247 196 187 184 175 198 255
233 237 241 242 244 245 241 237 240 242 240 238 248 247 238 217 218 220 215 214 221 229 240 250 240 171 160 186 207 222 255 312 334 262 194 192 182 196
233 236 241 241 243 241 237 235 230 236 236 236 246 247 236 236 239 226 224 219 220 231 242 247 233 205 205 201 205 209 214 223 226 291 314 308 258 224
Height
1530 1531 1531 1531 1531 1531 1531 1531 1532 1530 1529 1529 1529 1530 1530 1529 1529 1529 1528 1528 1528 1528 1528 1528 1527 1527 1527 1527 1526 1526 1526 1526 1526 1526 1526 1526 1526 1526
1528 1528 1528 1528 1528 1528 1528 1528 1528 1528 1527 1526 1526 1527 1527 1526 1526 1526 1525 1525 1525 1525 1525 1524 1524 1524 1524 1524 1524 1524 1523 1523 1523 1523 1524 1524 1524 1524
1525 1525 1525 1525 1525 1525 1525 1525 1525 1525 1524 1524 1524 1524 1524 1524 1523 1523 1523 1523 1522 1522 1522 1521 1521 1521 1520 1521 1521 1521 1521 1521 1520 1521 1521 1521 1521 1522
1522 1522 1522 1522 1522 1522 1522 1522 1522 1522 1521 1520 1520 1520 1520 1520 1520 1520 1520 1520 1519 1519 1519 1518 1518 1518 1518 1518 1518 1518 1518 1518 1518 1518 1518 1518 1518 1519
1520 1519 1519 1519 1519 1519 1519 1519 1519 1518 1518 1517 1517 1517 1517 1517 1517 1517 1517 1516 1516 1516 1516 1516 1516 1515 1515 1515 1516 1516 1516 1515 1515 1515 1515 1515 1515 1516
1517 1517 1516 1516 1516 1515 1515 1515 1515 1515 1514 1514 1514 1513 1514 1514 1514 1513 1513 1513 1513 1513 1513 1513 1513 1513 1513 1512 1512 1512 1512 1512 1512 1512 1512 1512 1512 1513
1514 1513 1513 1513 1512 1512 1512 1511 1511 1511 1511 1511 1510 1510 1510 1510 1510 1510 1510 1510 1510 1510 1510 1509 1510 1509 1509 1509 1509 1509 1509 1509 1509 1509 1509 1509 1509 1510
1510 1509 1509 1509 1508 1508 1508 1508 1508 1508 1507 1507 1506 1506 1506 1506 1507 1507 1507 1506 1506 1507 1506 1506 1506 1506 1506 1506 1506 1506 1506 1506 1506 1506 1506 1506 1506 1507
1506 1506 1506 1505 1504 1504 1504 1504 1504 1504 1504 1504 1503 1502 1503 1503 1503 1503 1503 1503 1503 1503 1503 1502 1502 1502 1502 1502 1502 1502 1503 1503 1503 1503 1503 1503 1504 1504
1503 1502 1502 1501 1501 1500 1500 1500 1500 1499 1499 1499 1499 1499 1499 1500 1500 1500 1500 1500 1500 1500 1500 1499 1499 1499 1499 1499 1499 1499 1499 1500 1500 1500 1501 1501 1501 1501
1499 1499 1499 1498 1497 1497 1497 1496 1496 1495 1495 1495 1495 1496 1496 1496 1496 1496 1496 1496 1495 1496 1496 1496 1495 1495 1495 1495 1496 1496 1496 1496 1497 1497 1498 1498 1498 1498
1495 1495 1496 1495 1494 1494 1493 1493 1492 1492 1492 1492 1492 1492 1492 1492 1493 1493 1493 1493 1492 1492 1493 1493 1493 1492 1492 1492 1493 1493 1493 1493 1494 1494 1495 1495 1495 1495
1492 1492 1492 1492 1491 1491 1490 1489 1489 1489 1489 1488 1488 1488 1489 1489 1489 1489 1489 1490 1489 1489 1490 1490 1490 1489 1489 1489 1489 1490 1490 1490 1491 1491 1492 1492 1492 1492
1489 1489 1489 1488 1488 1487 1487 1486 1486 1486 1486 1485 1485 1485 1485 1486 1486 1486 1486 1486 1486 1487 1487 1487 1486 1486 1486 1485 1485 1486 1486 1487 1487 1487 1488 1488 1488 1489
1487 1486 1486 1485 1485 1484 1483 1483 1482 1482 1482 1482 1482 1482 1483 1483 1483 1483 1483 1483 1483 1483 1483 1483 1483 1483 1483 1482 1482 1482 1483 1483 1483 1483 1484 1484 1484 1485
1484 1483 1483 1483 1482 1481 1481 1480 1480 1479 1478 1478 1478 1479 1479 1480 1480 1480 1480 1480 1480 1480 1480 1480 1480 1480 1479 1478 1479 1478 1479 1479 1479 1480 1480 1480 1481 1481
1481 1481 1480 1480 1479 1478 1478 1477 1477 1476 1475 1476 1476 1475 1476 1476 1476 1477 1477 1477 1476 1476 1476 1476 1476 1476 1476 1476 1475 1475 1475 1475 1476 1476 1476 1476 1477 1477
1479 1477 1477 1477 1476 1476 1475 1474 1473 1473 1473 1472 1472 1472 1472 1472 1473 1473 1473 1473 1473 1473 1473 1473 1473 1473 1473 1473 1473 1472 1472 1472 1472 1473 1473 1473 1473 1474
1475 1475 1474 1474 1474 1473 1472 1471 1471 1471 1470 1469 1469 1468 1469 1469 1469 1469 1469 1470 1470 1470 1470 1470 1470 1470 1469 1469 1470 1470 1469 1469 1469 1469 1470 1470 1470 1471
1472 1472 1472 1471 1471 1470 1470 1469 1468 1467 1467 1466 1466 1465 1465 1465 1465 1465 1465 1466 1466 1466 1466 1466 1466 1466 1466 1467 1466 1467 1467 1467 1467 1467 1467 1467 1468 1468
1470 1469 1469 1469 1468 1467 1467 1466 1465 1465 1464 1463 1462 1462 1461 1461 1461 1462 1462 1462 1462 1462 1463 1463 1463 1464 1464 1464 1464 1463 1464 1465 1465 1465 1464 1465 1465 1465
1467 1467 1466 1466 1465 1464 1463 1463 1462 1461 1461 1460 1459 1459 1458 1458 1458 1458 1458 1458 1459 1459 1459 1459 1460 1460 1460 1460 1460 1460 1461 1462 1462 1463 1463 1463 1462 1462
1464 1464 1463 1463 1462 1461 1460 1460 1459 1458 1457 1457 1456 1456 1455 1455 1455 1455 1455 1455 1455 1455 1455 1455 1456 1456 1456 1457 1457 1457 1458 1458 1459 1459 1461 1461 1461 1461